Location: Utrecht
(52.0907°N, 5.1214°E)
Time: 07:22:07
(UTC+02:00)

NANOSAT C BR1 - Pass Details

Date: 05 July 2022
Orbit: 584 x 599 km, 98.0° (Epoch: 07 August)

Event Time Altitude Azimuth Distance (km) Brightness Sun altitude
Rises 03:44:21 0° 16° (NNE) 2,854 ? -10.6°
Reaches altitude 10° 03:46:34 10° 20° (NNE) 1,948 ? -10.5°
Maximum altitude 03:50:45 62° 102° (ESE) 679 ? -10.2°
Enters shadow 03:54:53 10° 183° (S) 1,922 ? -9.8°
